Location: Nitra
(0.0000°N, 18.0833°E)
Time: 17:42:59
(UTC+01:00)

Lacrosse 5 rocket - Pass Details

Date: 24 January 2021
Orbit: 465 x 630 km, 57.0° (Epoch: 02 March)

Event Time Altitude Azimuth Distance (km) Brightness Sun altitude
Rises 19:35:48 0° 215° (SW) 2,893 5.9 -22.6°
Reaches altitude 10° 19:38:06 10° 218° (SW) 1,995 4.9 -23.1°
Maximum altitude 19:42:39 65° 300° (WNW) 689 1.8 -24.2°
Enters shadow 19:43:16 58° 343° (NNW) 735 1.8 -24.3°
